Flag for Greenland Weather past 2 weeks in Ittoqqortoormiit, Greenland

Now
11 °F

Snow flurries. Overcast.


Feels Like: -7 °F
Forecast: 7 / 13 °F
Wind: 18 mph from Northeast

Location: Scoresbysund


UV Index: 0 (Low)

Visibility: 2 mi


Pressure: 29.73 "Hg

Humidity: 72%

Dew point: 4 °F

Location of IttoqqortoormiitLocation

Historic Weather in Ittoqqortoormiit

°F

Ittoqqortoormiit temperature yesterday

Maximum temperature yesterday: 20 °F (at 9:00 AM)
Minimum temperature yesterday: 10 °F (at 10:00 PM)
Average temperature yesterday: 15 °F

Past Weeks' High & Low Weather Summary

 TemperatureHumidityPressure
High25 °F (Apr 8, 4:00 AM)98% (Apr 15, 7:00 AM)30.04 "Hg (Apr 15, 7:00 AM)
Low-8 °F (Apr 14, 7:00 AM)44% (Apr 13, 9:00 AM)28.88 "Hg (Apr 18, 5:00 AM)
Average13 °F76%29.69 "Hg
* Reported Apr 4 9:00 AM — Apr 19 9:00 AM, Ittoqqortoormiit, Weather by CustomWeather, © 2014

Note: Actual official high and low records may vary slightly from our data, if they occured in-between our weather recording intervals... More about our weather records

Advertising

Historic Weather Conditions — Data for Previous 24 hours

 ConditionsComfort  
Time TempWeatherWind HumidityBarometerVisibility
9:00 AM
Apr 19
11 °FSnow flurries. Overcast.18 mph72%29.73 "Hg2 mi
8:00 AM11 °FSnow flurries. Overcast.25 mph66%29.69 "Hg1 mi
7:00 AM11 °FSnow flurries. Overcast.26 mph66%29.66 "Hg1 mi
6:00 AM11 °FLight snow. Scattered clouds.29 mph61%29.62 "Hg1 mi
5:00 AM12 °FSnow flurries. Overcast.26 mph65%29.60 "Hg1 mi
4:00 AM11 °FSnow flurries. Overcast.18 mph69%29.58 "Hg10 mi
3:00 AM12 °FLight snow. Overcast.20 mph67%29.58 "Hg7 mi
2:00 AM12 °FLight snow. Overcast.20 mph72%29.55 "Hg3 mi
1:00 AM11 °FSnow flurries. Overcast.22 mph73%29.50 "Hg3 mi
12:00 AM11 °FSnow flurries. Passing clouds.23 mph73%29.47 "Hg3 mi
11:00 PM
Apr 18
11 °FSnow flurries. Passing clouds.23 mph76%29.44 "Hg3 mi
10:00 PM10 °FSnow flurries. Overcast.24 mph79%29.41 "Hg1 mi
8:00 PM14 °FLight snow. Overcast.17 mph73%29.35 "Hg5 mi
7:00 PM14 °FLight snow. Overcast.18 mph81%29.29 "Hg3 mi
6:00 PM14 °FLight snow. Ice fog.18 mph84%29.29 "Hg1 mi
5:00 PM14 °FLight snow. Overcast.18 mph83%29.23 "Hg2 mi
4:00 PM13 °FLight snow. Ice fog.21 mph88%29.21 "Hg1 mi
3:00 PM13 °FLight snow. Ice fog.22 mph94%29.18 "Hg1 mi
2:00 PM16 °FLight snow. Ice fog.12 mph95%29.12 "Hg3 mi
1:00 PM18 °FLight snow. Overcast.9 mph95%29.09 "Hg1 mi
12:00 PM18 °FLight snow. Ice fog.12 mph97%29.03 "Hg1 mi
11:00 AM19 °FSnow. Low clouds.14 mph96%29.00 "Hg1 mi
10:00 AM20 °FSnow. Ice fog.10 mph97%28.97 "Hg0 mi
Weather by CustomWeather, © 2014

See weather overview